RH
47 45 52 61 86 98 94 88 96 98 92 91 83 79 80 74 69 63 62 65 72 72 74 80 77 74 69 62 61 61 51 61 92 92 87 86 72 57
48 55 58 58 62 70 82 92 94 89 90 81 77 79 81 81 75 69 60 63 66 74 73 80 79 76 73 68 68 66 59 50 58 71 87 92 92 87
43 48 50 48 48 52 61 70 82 80 77 70 69 72 83 88 89 78 67 63 66 69 71 75 75 78 79 76 76 76 67 58 50 54 61 65 74 82
45 41 46 50 44 51 52 56 56 59 69 61 60 69 78 80 78 73 69 65 64 63 72 76 76 80 82 81 81 86 82 67 57 51 56 58 61 66
45 46 45 44 49 51 49 54 53 56 58 62 59 70 76 80 82 74 69 69 68 69 69 70 73 85 90 88 90 91 91 80 66 54 53 56 57 62
56 50 47 47 47 52 53 62 65 64 66 66 64 68 69 75 77 74 77 77 78 80 77 74 73 74 79 80 87 86 89 88 75 64 59 58 59 63
70 73 69 59 54 54 61 63 67 68 64 65 69 69 68 67 65 76 84 87 87 84 83 78 78 75 74 79 78 84 87 89 83 66 63 62 61 61
76 82 84 89 81 66 66 68 66 79 81 74 69 70 66 67 69 84 89 90 95 90 83 82 81 77 78 82 80 83 90 89 84 76 66 65 66 62
80 81 84 86 83 75 62 53 51 55 57 63 66 69 68 77 76 82 82 89 89 92 91 88 85 84 85 88 85 83 84 85 84 77 73 69 69 65
96 93 84 82 80 77 73 67 65 59 57 60 59 61 67 69 89 80 75 88 82 88 90 95 92 88 88 84 84 89 88 84 82 80 79 74 71 68
84 92 94 87 83 79 77 75 74 70 65 66 67 71 81 85 81 92 98 93 93 90 92 98 95 91 93 86 83 89 92 94 91 83 79 75 70 70
28 35 52 70 77 86 91 96 86 87 82 87 83 78 79 90 89 91 94 95 96 98 98 98 99 99 97 95 89 95 92 95 95 90 81 75 72 72
10 17 21 25 29 38 48 56 74 81 88 96 97 95 94 94 94 93 98 96 97 98 98 98 98 98 98 98 98 94 96 97 96 95 88 83 80 79
9 9 9 13 18 17 21 24 30 36 39 43 50 63 78 86 91 94 97 96 97 97 97 96 98 98 97 98 98 96 97 96 98 96 95 94 93 89
10 10 9 9 9 9 10 13 15 17 20 23 28 32 34 38 43 50 63 78 86 89 92 94 96 97 97 97 97 98 97 97 95 93 95 96 95 92
11 10 10 10 10 9 9 8 8 8 9 13 18 20 22 24 24 23 25 28 39 48 54 67 78 84 88 89 92 93 94 96 96 95 93 93 90 90
11 11 10 10 10 10 10 9 9 8 8 8 8 8 10 13 14 17 20 19 17 20 24 29 35 39 49 61 69 74 78 83 88 92 94 93 89 91
10 10 11 11 12 12 11 11 10 10 10 9 9 9 10 10 10 11 11 12 12 13 14 15 16 21 26 32 38 45 53 58 61 67 74 79 83 86
12 13 13 12 12 12 13 13 12 12 11 10 10 10 11 12 13 13 13 13 12 13 14 14 17 18 19 21 26 29 32 39 47 55 59 61 63 66
19 20 18 17 15 15 14 14 14 14 13 12 12 11 11 12 14 15 16 16 15 15 14 16 16 19 25 26 26 28 32 33 37 41 45 51 58 61
25 24 23 22 21 20 19 18 16 15 15 15 14 13 13 13 13 15 16 17 18 17 16 16 20 20 22 27 29 31 33 36 37 39 42 46 49 54
28 27 29 29 29 27 24 22 20 19 18 18 18 18 17 16 16 17 18 18 19 19 18 17 20 23 22 24 29 32 36 39 42 45 48 49 50 52
29 31 32 34 33 32 29 26 24 23 21 21 21 22 22 21 20 20 21 22 22 21 21 18 19 27 28 27 29 35 41 42 45 50 52 52 53 54